Weather in Middelburg

South Africa     25°45′49″S   29°27′21″E
В апреле 2022 года жителям России запретили посещать сайт meteo.paraplan.net по решению Генеральной прокуратуры. Аудитория сайта уменьшилась в 10 раз. Владельцы сайта не видят смысла в поддержке погодного сервера в таких условиях. Сайт будет закрыт в октябре.
temp.,
°C
wind,
m/s
gust,
m/s
humid.,
%
clouds,
%
prec.,
mm/h
press.,
hPa
HPBL,
m
6 october, thu
thu623:00+21n33320 0.0 101828
02:00+19n34390 0.0 101756
05:00+17n22480 0.0 101812
08:00+23n23340 0.0 1018381
11:00+30nnw55200 0.0 10151365
14:00+32nw54130 0.0 10122926
17:00+31nw6590 0.0 10112712
20:00+24nne410140 0.0 1015165
7 october, fri
fri723:00+22nne511270 0.0 1016224
02:00+20n34290 0.0 101654
05:00+18ene46330 0.0 101779
08:00+25nne67210 0.0 1018773
11:00+30nnw54160 0.0 10171979
14:00+32nnw53120 0.0 10143707
17:00+30nne751579 0.0 10142632
20:00+22e8104510 0.0 10201021
8 october, sat
sat823:00+18ene7968100 0.2 1022285
02:00+17ese696370 0.2 1021254
05:00+14e34745 0.0 102391
08:00+20ne36445 0.0 1023570
11:00+27nnw65251 0.0 10201551
14:00+30nnw75170 0.0 10172651
17:00+28nw75171 0.0 10172061
20:00+22nne49260 0.0 1021230
9 october, sun
sun923:00+19n37364 0.0 1022131
02:00+17nnw224432 0.0 102115
05:00+16ssw11490 0.0 102311
08:00+21wnw11340 0.0 1023391
11:00+28nnw44190 0.0 10201566
14:00+32wnw68138 0.0 10153761
17:00+31nw43135 0.0 10152016
20:00+24n48159 0.0 1020135
10 october, mon
mon1023:00+21ese4621100 0.0 102294
02:00+20ene332529 0.0 102125
05:00+18ese222925 0.0 102211
08:00+24e00214 0.0 1022406
11:00+29nw14145 0.0 10203024
14:00+32nw3312100 0.0 10154202
17:00+30n651279 0.0 10153951
20:00+24nne49182 0.0 1020251